DMSP 5D-2 F11 DEB, 28345

Orbit data source: Space-Track

DMSP 5D-2 F11 DEB, 28345 is space debris in SSO originally from a launch on Thu, 28 Nov 1991 UTC launched from the Air Force Western Test Range (AFWTR). Debris objects in space refer to the collection of defunct objects orbiting the Earth. Examples of debris include non-operational satellites, rocket bodies, and fragments generated from explosions, collisions, or faulty payload assembly.

Loading next visibility...
Identifier
28345, 1991-082BJ
Orbit
SSO
Country
Flag of USUS
Related business
Manufacturer
Unknown
Mission
Spacecraft
Bus & Motor
Unknown
Mass
Unknown
Launch date (UTC)
1991-11-28 (35 years ago)
Launch vehicle
Unknown
Launch site
Air Force Western Test Range (AFWTR)
Object type
Payload
Rocket body
Debris
Shape & HBR
Unknown shape, 0.1 m
Radar Cross Section
Small (<0.1 m²)

Expand to show TLE details & history
Last TLE update: 8 hours ago

TLE from 8 hours ago
0 DMSP 5D-2 F11 DEB
1 28345U 91082BJ  26264.27603027  .00019882  00000-0  27529-2 0  9994
2 28345  98.6105  18.2876 0039809 303.5237  56.2171 14.77501595143719
Epoch: 2026-09-21T06:37Z
TLE epoch observation values (Epoch: 2026-09-21T06:37:29.015Z)
Latitude
-0.00001°
Longitude
-81.24148°
Altitude
624.762 km
Speed
7.555 km/s
True Right ascension
01h 13m 09s
True Declination
0° 00' 00"
Sunlit
Object was in full shadow at epoch
Visualization orbit readout
Latitude
Unknown
Longitude
Unknown
Altitude
Unknown
Speed
Unknown
Apparent Right ascension
Unknown
Apparent Declination
Unknown
Sunlit
N/A
Visualization observer readout
Local Sidereal Time
08:07:06
Azimuth
Unknown
Elevation
Unknown
Doppler factor
Unknown
Orbital elements
Apogee altitude
662.215 km
Perigee altitude
606.383 km
Semi-major axis
7,012.436 km
Eccentricity
0.00398
Inclination
98.6105°
RAAN
18.2876°
Arg. of periapsis
303.5237°
True anomaly
56.5973°
Mean anomaly
56.2171°
Eccentric anomaly
56.4071°
Mean motion
3.69607 °/min
Orbital period
97.4 mins
BSTAR
0.0027529

Documentation

Showing up to 5 results
|